Skip Page Navigation
NASA JPL Caltech
NASA Logo - Jet Propulsion Laboratory + View the NASA Portal
+ Near-Earth Object (NEO) Program
Search JPL
JPL Home Earth Solar System Stars & Galaxies Technology
JPL Solar System Dynamics
BODIES ORBITS EPHEMERIDES TOOLS PHYSICAL DATA DISCOVERY FAQ SITE MAP
JPL Small-Body Database Browser
Search: [ help ]  
46596 Tobata (1993 BD)
Classification: Main-belt Asteroid          SPK-ID: 2046596
Ephemeris | Orbit Diagram | Orbital Elements | Physical Parameters | Discovery Circumstances | Close-Approach Data ]

[ hide orbit diagram ]
Orbit Diagram
Note: Make sure you have Java enabled on your browser to see the applet. This applet is provided as a 3D orbit visualization tool. The applet was implemented using 2-body methods, and hence should not be used for determining accurate long-term trajectories (over several years or decades) or planetary encounter circumstances. For accurate long-term ephemerides, please instead use our Horizons system.

Note: If the applet has stopped working because of a recent Java upgrade, here is a possible workaround.
Orbit Viewer

Additional Notes: the orbits shown in the applet are color coded. The planets are white lines, and the asteroid/comet is a blue line. The bright white line indicates the portion of the orbit that is above the ecliptic plane, and the darker portion is below the ecliptic plane. Likewise for the asteroid/comet orbit, the light blue indicates the portion above the ecliptic plane, and the dark blue the portion below the ecliptic plane.

Orbit Viewer applet originally written and kindly provided by Osamu Ajiki (AstroArts), and further modified by Ron Baalke (JPL).


Orbital Elements at Epoch 2456800.5 (2014-May-23.0) TDB
Reference: JPL 8 (heliocentric ecliptic J2000)
 Element Value Uncertainty (1-sigma)   Units 
e .1389470162803462 5.8017e-08  
a 2.32937955198192 1.404e-08 AU
q 2.005719213449583 1.3614e-07 AU
i 6.947453013094381 6.5798e-06 deg
node 112.8677764152626 5.9082e-05 deg
peri 7.601536829652345 6.5963e-05 deg
M 9.080101381821867 2.7772e-05 deg
tp 2456767.747307198059
(2014-Apr-20.24730720)
0.00010014 JED
period 1298.550414018959
3.56
1.174e-05
3.214e-08
d
yr
n .2772322091722378 2.5065e-09 deg/d
Q 2.653039890514258 1.5991e-08 AU
  Orbit Determination Parameters
   # obs. used (total)      720  
   data-arc span      7732 days (21.17 yr)  
   first obs. used      1993-01-16  
   last obs. used      2014-03-19  
   planetary ephem.      DE431  
   SB-pert. ephem.      SB431-BIG16  
   condition code      0  
   fit RMS      .56954  
   data source      ORB  
   producer      Otto Matic  
   solution date      2014-Apr-17 14:49:37  

Additional Information
 Earth MOID = 1.0218 AU 
 T_jup = 3.549 
[ show covariance matrix ]

Ephemeris | Orbit Diagram | Orbital Elements | Physical Parameters | Discovery Circumstances | Close-Approach Data ]

Physical Parameter Table
Parameter Symbol Value Units Sigma Reference Notes
absolute magnitude H 14.7 mag n/a MPO244571  

46596 Tobata           Discovered 1993 Jan. 16 by T. Seki at Geisei.
Tobata, a ward of Kita-Kyushu City in Fukuoka prefecture, is the location of the Faculty of Engineering campus of the Kyushu Institute of Technology.
NOTE: some special characters may not display properly (any characters within {} are an attempt to place the proper accent above a character)
Reference: 20080122/MPCPages.arcLast Updated: 2008-03-05

[ show close-approach data ]
Ephemeris | Orbit Diagram | Orbital Elements | Physical Parameters | Discovery Circumstances | Close-Approach Data ]
ABOUT SSD CREDITS/AWARDS PRIVACY/COPYRIGHT GLOSSARY LINKS
FirstGov 2014-Apr-19 17:10 UT
(server date/time)  
NASA Home Page
Site Manager:   Donald K. Yeomans
Webmaster  Alan B. Chamberlin